| time (UTC) | temp F | wind direction | speed MPH | gust MPH | rain 1hr in | rain 24hr in | rain mn in | humidity % | barometer mb |
| 20260906203057 | 58 | 319 | 0.0 | 1.0 | 0.01 | 0.01 | 0.01 | 70 | 1014.4 |
| 20260906201548 | 58 | 319 | 2.0 | 3.0 | 0.01 | 0.01 | 0.01 | 72 | 1014.3 |
| 20260906200048 | 59 | 231 | 2.0 | 4.0 | 0.00 | 0.00 | 0.00 | 66 | 1014.5 |
| 20260906194543 | 59 | 245 | 2.0 | 6.0 | 0.00 | 0.00 | 0.00 | 63 | 1014.6 |
| 20260906193102 | 60 | 243 | 2.0 | 5.0 | 0.00 | 0.00 | 0.00 | 63 | 1014.6 |
| 20260906191545 | 60 | 238 | 1.0 | 5.0 | 0.00 | 0.00 | 0.00 | 62 | 1014.6 |
| 20260906190041 | 60 | 284 | 4.0 | 7.0 | 0.00 | 0.00 | 0.00 | 61 | 1014.5 |
| 20260906184544 | 61 | 212 | 1.0 | 3.0 | 0.00 | 0.00 | 0.00 | 61 | 1014.6 |
| 20260906183038 | 59 | 252 | 2.0 | 6.0 | 0.00 | 0.00 | 0.00 | 63 | 1014.7 |
| 20260906181555 | 59 | 278 | 2.0 | 7.0 | 0.00 | 0.00 | 0.00 | 64 | 1014.6 |
| 20260906180038 | 60 | 98 | 2.0 | 5.0 | 0.00 | 0.00 | 0.00 | 62 | 1014.6 |
| 20260906174541 | 58 | 240 | 4.0 | 8.0 | 0.00 | 0.00 | 0.00 | 65 | 1014.7 |
| 20260906173031 | 58 | 280 | 2.0 | 5.0 | 0.00 | 0.00 | 0.00 | 68 | 1014.8 |
| 20260906171528 | 57 | 314 | 3.0 | 5.0 | 0.00 | 0.00 | 0.00 | 71 | 1014.8 |
| 20260906170026 | 56 | 288 | 4.0 | 7.0 | 0.00 | 0.00 | 0.00 | 72 | 1014.8 |
| 20260906164527 | 55 | 297 | 2.0 | 5.0 | 0.00 | 0.00 | 0.00 | 76 | 1015.0 |
| 20260906163023 | 55 | 255 | 3.0 | 6.0 | 0.00 | 0.00 | 0.00 | 76 | 1015.1 |
| 20260906161522 | 55 | 248 | 0.0 | 4.0 | 0.00 | 0.00 | 0.00 | 76 | 1015.0 |
| 20260906160020 | 55 | 235 | 1.0 | 4.0 | 0.00 | 0.00 | 0.00 | 77 | 1015.0 |
| 20260906154534 | 55 | 192 | 3.0 | 5.0 | 0.00 | 0.00 | 0.00 | 76 | 1014.9 |
| 20260906153022 | 55 | 146 | 0.0 | 4.0 | 0.00 | 0.00 | 0.00 | 76 | 1015.0 |
| 20260906151518 | 54 | 140 | 1.0 | 4.0 | 0.00 | 0.00 | 0.00 | 78 | 1015.1 |
| 20260906150017 | 53 | 117 | 1.0 | 4.0 | 0.00 | 0.00 | 0.00 | 80 | 1015.3 |
| 20260906144515 | 52 | 165 | 6.0 | 8.0 | 0.00 | 0.00 | 0.00 | 80 | 1015.5 |
| 20260906143019 | 52 | 153 | 5.0 | 8.0 | 0.00 | 0.00 | 0.00 | 80 | 1015.3 |
| 20260906141512 | 52 | 207 | 5.0 | 12.0 | 0.00 | 0.00 | 0.00 | 82 | 1015.0 |
| 20260906140008 | 51 | 179 | 4.0 | 6.0 | 0.00 | 0.00 | 0.00 | 85 | 1014.4 |
| 20260906134511 | 50 | 265 | 0.0 | 0.0 | 0.00 | 0.00 | 0.00 | 87 | 1013.7 |
| 20260906133007 | 50 | 233 | 1.0 | 4.0 | 0.00 | 0.00 | 0.00 | 87 | 1013.9 |
| 20260906131510 | 51 | 209 | 1.0 | 6.0 | 0.00 | 0.00 | 0.00 | 87 | 1013.8 |
| 20260906130004 | 49 | 190 | 1.0 | 3.0 | 0.00 | 0.00 | 0.00 | 88 | 1013.6 |
| 20260906124501 | 50 | 129 | 0.0 | 0.0 | 0.00 | 0.00 | 0.00 | 86 | 1013.3 |
| 20260906123002 | 50 | 129 | 0.0 | 0.0 | 0.00 | 0.00 | 0.00 | 86 | 1013.3 |
| 20260906121500 | 50 | 129 | 0.0 | 1.0 | 0.00 | 0.00 | 0.00 | 85 | 1013.4 |
| 20260906120100 | 50 | 129 | 0.0 | 0.0 | 0.00 | 0.00 | 0.00 | 85 | 1013.3 |
| 20260906114602 | 50 | 129 | 0.0 | 0.0 | 0.00 | 0.00 | 0.00 | 85 | 1013.4 |
| 20260906113059 | 49 | 129 | 0.0 | 0.0 | 0.00 | 0.00 | 0.00 | 86 | 1013.4 |
| 20260906111559 | 50 | 129 | 0.0 | 2.0 | 0.00 | 0.00 | 0.00 | 85 | 1013.3 |
| 20260906110055 | 50 | 160 | 0.0 | 0.0 | 0.00 | 0.00 | 0.00 | 84 | 1013.4 |
| 20260906104558 | 51 | 160 | 0.0 | 0.0 | 0.00 | 0.00 | 0.00 | 82 | 1013.3 |
| 20260906103051 | 52 | 160 | 1.0 | 2.0 | 0.00 | 0.00 | 0.00 | 81 | 1013.3 |
| 20260906101550 | 52 | 174 | 2.0 | 4.0 | 0.00 | 0.00 | 0.00 | 80 | 1013.3 |
| 20260906100050 | 53 | 150 | 3.0 | 6.0 | 0.00 | 0.00 | 0.00 | 80 | 1013.4 |
| 20260906094607 | 52 | 141 | 1.0 | 4.0 | 0.00 | 0.00 | 0.00 | 80 | 1013.2 |
| 20260906093116 | 52 | 118 | 1.0 | 4.0 | 0.00 | 0.00 | 0.00 | 80 | 1013.3 |
| 20260906091546 | 52 | 141 | 0.0 | 2.0 | 0.00 | 0.00 | 0.00 | 82 | 1013.4 |
| 20260906090044 | 52 | 141 | 1.0 | 5.0 | 0.00 | 0.00 | 0.00 | 80 | 1013.5 |
| 20260906084542 | 52 | 150 | 0.0 | 1.0 | 0.00 | 0.00 | 0.00 | 81 | 1013.5 |
| 20260906083046 | 52 | 150 | 2.0 | 3.0 | 0.00 | 0.00 | 0.00 | 80 | 1013.8 |
| 20260906081540 | 53 | 133 | 0.0 | 2.0 | 0.00 | 0.00 | 0.00 | 79 | 1013.9 |
| 20260906080040 | 54 | 133 | 0.0 | 2.0 | 0.00 | 0.00 | 0.00 | 78 | 1014.0 |
| 20260906074535 | 54 | 41 | 2.0 | 5.0 | 0.00 | 0.00 | 0.00 | 77 | 1014.1 |
| 20260906073032 | 55 | 158 | 0.0 | 0.0 | 0.00 | 0.00 | 0.00 | 76 | 1014.2 |
| 20260906071529 | 54 | 158 | 0.0 | 0.0 | 0.00 | 0.00 | 0.00 | 77 | 1014.4 |
| 20260906070026 | 55 | 158 | 0.0 | 3.0 | 0.00 | 0.00 | 0.00 | 76 | 1014.4 |
| 20260906064526 | 54 | 153 | 0.0 | 0.0 | 0.00 | 0.00 | 0.00 | 77 | 1014.5 |
| 20260906063026 | 55 | 153 | 3.0 | 5.0 | 0.00 | 0.00 | 0.00 | 75 | 1014.5 |
| 20260906061528 | 54 | 142 | 0.0 | 3.0 | 0.00 | 0.00 | 0.00 | 76 | 1014.5 |
| 20260906060024 | 54 | 134 | 1.0 | 2.0 | 0.00 | 0.00 | 0.00 | 75 | 1014.4 |
| 20260906054524 | 54 | 134 | 0.0 | 1.0 | 0.00 | 0.00 | 0.00 | 75 | 1014.6 |
| 20260906053023 | 55 | 134 | 1.0 | 3.0 | 0.00 | 0.00 | 0.00 | 72 | 1014.5 |
| 20260906051523 | 56 | 347 | 0.0 | 2.0 | 0.00 | 0.00 | 0.00 | 70 | 1014.6 |
| 20260906050023 | 58 | 360 | 1.0 | 4.0 | 0.00 | 0.00 | 0.00 | 68 | 1014.6 |
| 20260906044521 | 58 | 103 | 2.0 | 4.0 | 0.00 | 0.00 | 0.00 | 67 | 1014.8 |
| 20260906043021 | 59 | 103 | 1.0 | 5.0 | 0.00 | 0.00 | 0.00 | 65 | 1014.8 |
| 20260906041522 | 60 | 329 | 0.0 | 3.0 | 0.00 | 0.00 | 0.00 | 62 | 1014.9 |
| 20260906040027 | 61 | 282 | 2.0 | 3.0 | 0.00 | 0.00 | 0.00 | 60 | 1014.9 |
| 20260906034518 | 63 | 59 | 1.0 | 7.0 | 0.00 | 0.00 | 0.00 | 56 | 1014.9 |
| 20260906033020 | 63 | 83 | 4.0 | 8.0 | 0.00 | 0.00 | 0.00 | 55 | 1015.0 |
| 20260906031518 | 62 | 91 | 4.0 | 6.0 | 0.00 | 0.00 | 0.00 | 58 | 1015.0 |
| 20260906030019 | 62 | 60 | 3.0 | 8.0 | 0.00 | 0.00 | 0.00 | 61 | 1014.6 |
| 20260906024532 | 62 | 64 | 3.0 | 6.0 | 0.00 | 0.00 | 0.00 | 60 | 1014.4 |
| 20260906023019 | 63 | 35 | 3.0 | 6.0 | 0.00 | 0.00 | 0.00 | 58 | 1014.4 |
| 20260906021517 | 64 | 9 | 4.0 | 7.0 | 0.00 | 0.00 | 0.00 | 56 | 1014.4 |
| 20260906020015 | 66 | 26 | 3.0 | 6.0 | 0.00 | 0.00 | 0.00 | 53 | 1014.4 |
| 20260906014521 | 67 | 67 | 4.0 | 5.0 | 0.00 | 0.00 | 0.00 | 49 | 1014.5 |
| 20260906013034 | 68 | 37 | 3.0 | 6.0 | 0.00 | 0.00 | 0.00 | 47 | 1014.4 |
| 20260906011513 | 70 | 54 | 4.0 | 6.0 | 0.00 | 0.00 | 0.00 | 43 | 1014.4 |
| 20260906010012 | 70 | 352 | 3.0 | 6.0 | 0.00 | 0.00 | 0.00 | 42 | 1014.4 |
| 20260906004511 | 69 | 359 | 2.0 | 7.0 | 0.00 | 0.00 | 0.00 | 44 | 1014.3 |
| 20260906003009 | 69 | 296 | 4.0 | 7.0 | 0.00 | 0.00 | 0.00 | 44 | 1014.3 |
| 20260906001512 | 69 | 13 | 5.0 | 8.0 | 0.00 | 0.00 | 0.00 | 47 | 1014.3 |
| 20260906000009 | 69 | 352 | 4.0 | 9.0 | 0.00 | 0.00 | 0.00 | 46 | 1014.2 |
| 20260905234506 | 69 | 343 | 5.0 | 10.0 | 0.00 | 0.00 | 0.00 | 46 | 1014.3 |
| 20260905233006 | 69 | 330 | 3.0 | 7.0 | 0.00 | 0.00 | 0.00 | 46 | 1014.3 |
| 20260905231506 | 69 | 328 | 6.0 | 11.0 | 0.00 | 0.00 | 0.00 | 46 | 1014.2 |
| 20260905230004 | 68 | 39 | 4.0 | 11.0 | 0.00 | 0.00 | 0.00 | 48 | 1014.4 |
| 20260905224502 | 68 | 33 | 5.0 | 12.0 | 0.00 | 0.00 | 0.00 | 47 | 1014.6 |
| 20260905223100 | 67 | 345 | 7.0 | 12.0 | 0.00 | 0.00 | 0.00 | 48 | 1014.7 |
| 20260905221612 | 67 | 30 | 9.0 | 15.0 | 0.00 | 0.00 | 0.00 | 52 | 1015.0 |
| 20260905220056 | 66 | 32 | 9.0 | 15.0 | 0.00 | 0.00 | 0.00 | 56 | 1015.0 |
| 20260905214557 | 65 | 46 | 11.0 | 16.0 | 0.00 | 0.00 | 0.00 | 55 | 1015.1 |
| 20260905213103 | 64 | 68 | 4.0 | 12.0 | 0.00 | 0.00 | 0.00 | 57 | 1016.1 |
| 20260905211556 | 64 | 46 | 8.0 | 14.0 | 0.00 | 0.00 | 0.00 | 56 | 1015.5 |
| 20260905210057 | 65 | 24 | 4.0 | 12.0 | 0.00 | 0.00 | 0.00 | 52 | 1015.5 |
| 20260905204553 | 65 | 21 | 5.0 | 11.0 | 0.00 | 0.00 | 0.00 | 52 | 1015.7 |